Ogden, UT

9:11 PM MDT on May 23, 2017 (GMT -0600)
Ogden-Hinckley

Weather History for KOGD - January, 2013

Change the Weather History Date:

Tuesday, January 8, 2013

  Actual Average Record
Temperature  
Mean Temperature 24 °F -  
Max Temperature 28 °F 33 °F 55 °F (1956)
Min Temperature 19 °F 16 °F -8 °F (1937)
Degree Days  
Heating Degree Days 42    
Moisture  
Dew Point 19 °F    
Average Humidity 82    
Maximum Humidity 93    
Minimum Humidity 72    
Precipitation  
Precipitation 0.00 in - - ()
Sea Level Pressure  
Sea Level Pressure 30.36 in    
Wind  
Wind Speed 1 mph (NW)    
Max Wind Speed 5 mph    
Max Gust Speed -    
Visibility 3 miles    
Events      
Averages and records for this station are not official NWS values.
T = Trace of Precipitation, MM = Missing Value Source: NWS Daily Summary

Daily Weather History Graph

Daily Weather History Graph

Search for Another Location

Airport or City:

Trip Planner

Search our weather history database for the weather conditions in past years. The results will help you decide how hot, cold, wet, or windy it might be!

Date:

Astronomy

Jan. 08, 2013 Rise Set
Actual Time 7:53 AM MST 5:16 PM MST
Civil Twilight 7:22 AM MST 5:47 PM MST
Nautical Twilight 6:48 AM MST 6:21 PM MST
Astronomical Twilight 6:14 AM MST 6:55 PM MST
Moon 4:30 AM MST (1/8) 2:22 PM MST (1/8)
Length of Visible Light 10h 25m
Length of Day
9h 23m
Waning Crescent, 13% of the Moon is Illuminated
Jan 8
Waning Crescent
Jan 11
New
Jan 18
First Quarter
Jan 26
Full
Feb 3
Last Quarter

Hourly Weather History & Observations

Time (MST) Temp. Windchill Dew Point Humidity Pressure Visibility Wind Dir Wind Speed Gust Speed Precip Events Conditions
12:53 AM 21.0 °F - 16.0 °F 81% 30.31 in 4.0 mi Calm Calm - N/A   Haze
1:53 AM 21.0 °F - 16.0 °F 81% 30.29 in 4.0 mi Calm Calm - N/A   Haze
2:53 AM 21.0 °F - 17.1 °F 85% 30.31 in 3.0 mi Calm Calm - N/A   Overcast
3:53 AM 21.9 °F - 17.1 °F 82% 30.30 in 3.0 mi Calm Calm - N/A   Haze
4:53 AM 21.0 °F 16.2 °F 17.1 °F 85% 30.32 in 3.0 mi NNW 3.5 mph - N/A   Overcast
5:53 AM 21.0 °F - 17.1 °F 85% 30.33 in 3.0 mi Calm Calm - N/A   Overcast
7:15 AM 21.2 °F - 17.6 °F 86% 30.23 in 2.5 mi Calm Calm - N/A   Haze
7:53 AM 19.9 °F - 17.1 °F 89% 30.35 in 2.5 mi Calm Calm - N/A   Overcast
8:10 AM 19.4 °F - 17.6 °F 93% 30.24 in 1.2 mi Calm Calm - N/A   Mostly Cloudy
8:53 AM 19.9 °F 14.9 °F 17.1 °F 89% 30.38 in 1.2 mi NNW 3.5 mph - N/A   Overcast
9:53 AM 23.0 °F - 19.0 °F 85% 30.38 in 1.5 mi Calm Calm - N/A   Mist
10:53 AM 21.9 °F - 18.0 °F 85% 30.41 in 1.8 mi Calm Calm - N/A   Overcast
11:31 AM 24.8 °F - 17.6 °F 74% 30.30 in 2.0 mi Calm Calm - N/A   Haze
11:53 AM 24.1 °F - 19.0 °F 81% 30.38 in 2.0 mi Calm Calm - N/A   Haze
12:53 PM 26.1 °F - 19.9 °F 78% 30.37 in 2.0 mi Calm Calm - N/A   Haze
2:53 PM 28.0 °F 22.8 °F 19.9 °F 72% 30.37 in 2.0 mi NNW 4.6 mph - N/A   Haze
3:53 PM 28.0 °F - 19.9 °F 72% 30.39 in 2.5 mi Calm Calm - N/A   Haze
4:53 PM 28.0 °F 24.2 °F 21.0 °F 75% 30.40 in 2.5 mi NW 3.5 mph - N/A   Haze
5:30 PM 28.4 °F - 21.2 °F 74% 30.32 in 3.0 mi Calm Calm - N/A   Haze
5:53 PM 28.0 °F - 21.9 °F 78% 30.41 in 4.0 mi Calm Calm - N/A   Haze
6:53 PM 28.0 °F - 21.9 °F 78% 30.42 in 3.0 mi Calm Calm - N/A   Haze
7:53 PM 27.0 °F 23.0 °F 23.0 °F 85% 30.44 in 2.5 mi NW 3.5 mph - N/A   Overcast
8:06 PM 26.6 °F - 21.2 °F 80% 30.35 in 3.0 mi Calm Calm - N/A   Overcast
8:53 PM 27.0 °F - 21.9 °F 81% 30.45 in 3.0 mi Calm Calm - N/A   Haze
10:53 PM 26.1 °F - 21.0 °F 81% 30.46 in 3.0 mi Calm Calm - N/A   Haze
11:53 PM 27.0 °F - 23.0 °F 85% 30.47 in 3.0 mi Calm Calm - N/A   Overcast